Lacon, IL

12:08 AM CDT on June 23, 2017 (GMT -0500)
Lacon

Weather History for KC75 - June, 2013

Change the Weather History Date:

Monday, June 24, 2013

  Actual Average (KVYS) Record (KVYS)
Temperature  
Mean Temperature 74 °F -  
Max Temperature 84 °F 83 °F 97 °F (1989)
Min Temperature 65 °F 59 °F 44 °F (1972)
Cooling Degree Days 10    
Growing Degree Days 24 (Base 50)    
Moisture  
Dew Point 67 °F    
Average Humidity 88    
Maximum Humidity 97    
Minimum Humidity 70    
Precipitation  
Precipitation 0.65 in - - ()
Sea Level Pressure  
Sea Level Pressure 30.00 in    
Wind  
Wind Speed 5 mph (SSW)    
Max Wind Speed 22 mph    
Max Gust Speed 43 mph    
Visibility 9 miles    
Events Rain , Thunderstorm    
Averages and records for this station are not official NWS values.
T = Trace of Precipitation, MM = Missing Value Source: NWS Daily Summary

Daily Weather History Graph

Daily Weather History Graph

Search for Another Location

Airport or City:

Trip Planner

Search our weather history database for the weather conditions in past years. The results will help you decide how hot, cold, wet, or windy it might be!

Date:

Astronomy

Jun. 24, 2013 Rise Set
Actual Time 5:26 AM CDT 8:33 PM CDT
Civil Twilight 4:52 AM CDT 9:07 PM CDT
Nautical Twilight 4:09 AM CDT 9:50 PM CDT
Astronomical Twilight 3:18 AM CDT 10:41 PM CDT
Moon 9:34 PM CDT (6/24) 6:54 AM CDT (6/24)
Length of Visible Light 16h 14m
Length of Day
15h 07m
Full, 98% of the Moon is Illuminated
Jun 24
Full
Jun 29
Last Quarter
Jul 8
New
Jul 15
First Quarter
Jul 22
Full

Hourly Weather History & Observations

Time (CDT) Temp. Heat Index Dew Point Humidity Pressure Visibility Wind Dir Wind Speed Gust Speed Precip Events Conditions
12:15 AM 68.4 °F - 66.2 °F 93% 30.01 in 10.0 mi Calm Calm - N/A   Scattered Clouds
12:35 AM 68.4 °F - 66.0 °F 92% 30.00 in 10.0 mi Calm Calm - N/A   Mostly Cloudy
12:55 AM 68.4 °F - 66.2 °F 93% 30.01 in 10.0 mi Calm Calm - N/A   Mostly Cloudy
1:15 AM 68.4 °F - 66.2 °F 93% 30.00 in 10.0 mi South 3.5 mph - N/A   Scattered Clouds
1:35 AM 68.9 °F - 65.7 °F 89% 29.99 in 10.0 mi SSE 5.8 mph - N/A   Scattered Clouds
1:55 AM 68.0 °F - 65.7 °F 92% 29.99 in 10.0 mi South 4.6 mph - N/A   Mostly Cloudy
2:15 AM 68.4 °F - 65.5 °F 90% 29.98 in 10.0 mi South 3.5 mph - N/A   Mostly Cloudy
2:35 AM 68.7 °F - 66.2 °F 92% 30.02 in 10.0 mi West 8.1 mph - N/A Thunderstorm Mostly Cloudy
2:55 AM 70.2 °F - 65.1 °F 84% 30.02 in 10.0 mi SW 11.5 mph 17.3 mph N/A Rain , Thunderstorm Light Thunderstorms and Rain
3:15 AM 68.0 °F - 65.3 °F 91% 30.00 in 10.0 mi South 9.2 mph - 0.05 in Rain , Thunderstorm Light Thunderstorms and Rain
3:35 AM 68.0 °F - 64.4 °F 88% 29.99 in 10.0 mi SSW 9.2 mph 17.3 mph N/A Rain , Thunderstorm Light Thunderstorms and Rain
3:55 AM 68.2 °F - 65.3 °F 90% 30.01 in 10.0 mi South 3.5 mph - N/A Rain , Thunderstorm Light Thunderstorms and Rain
4:15 AM 68.9 °F - 66.0 °F 90% 30.06 in 10.0 mi WNW 8.1 mph - 0.01 in Rain , Thunderstorm Thunderstorms and Rain
4:35 AM 68.9 °F - 66.0 °F 90% 30.05 in 7.0 mi WSW 8.1 mph - 0.08 in Rain , Thunderstorm Heavy Thunderstorms and Rain
4:55 AM 67.5 °F - 64.8 °F 91% 30.05 in 5.0 mi SW 10.4 mph 17.3 mph 0.14 in Rain , Thunderstorm Heavy Thunderstorms and Rain
5:15 AM 66.2 °F - 64.4 °F 94% 30.06 in 7.0 mi SSW 11.5 mph 17.3 mph 0.04 in Rain , Thunderstorm Thunderstorms and Rain
5:35 AM 65.7 °F - 64.2 °F 95% 30.05 in 7.0 mi SSW 5.8 mph - 0.06 in Rain , Thunderstorm Light Thunderstorms and Rain
5:55 AM 66.2 °F - 64.9 °F 96% 30.07 in 7.0 mi WNW 3.5 mph - 0.01 in Rain , Thunderstorm Thunderstorms and Rain
6:15 AM 66.2 °F - 65.3 °F 97% 30.05 in 7.0 mi South 4.6 mph - N/A Rain , Thunderstorm Light Thunderstorms and Rain
6:35 AM 66.2 °F - 64.0 °F 93% 30.04 in 10.0 mi South 8.1 mph - 0.01 in Rain , Thunderstorm Light Thunderstorms and Rain
6:55 AM 66.2 °F - 64.6 °F 94% 30.09 in 10.0 mi NNW 16.1 mph 35.7 mph 0.02 in Rain , Thunderstorm Thunderstorms and Rain
7:15 AM 66.4 °F - 64.8 °F 95% 30.05 in 7.0 mi Calm Calm - 0.01 in Rain , Thunderstorm Light Thunderstorms and Rain
7:35 AM 66.4 °F - 65.1 °F 96% 30.08 in 10.0 mi Calm Calm - 0.01 in Rain , Thunderstorm Light Thunderstorms and Rain
7:55 AM 66.2 °F - 65.1 °F 96% 30.14 in 2.5 mi NW 6.9 mph 16.1 mph 0.16 in Rain , Thunderstorm Heavy Thunderstorms and Rain
8:15 AM 65.8 °F - 64.9 °F 97% 30.12 in 5.0 mi Calm Calm - 0.03 in Rain , Thunderstorm Heavy Thunderstorms and Rain
8:35 AM 66.2 °F - 65.3 °F 97% 30.08 in 10.0 mi SE 8.1 mph - 0.06 in Rain , Thunderstorm Light Thunderstorms and Rain
8:55 AM 67.1 °F - 64.9 °F 93% 30.07 in 10.0 mi ESE 5.8 mph - 0.06 in   Clear
9:15 AM 68.0 °F - 65.8 °F 93% 30.08 in 10.0 mi South 4.6 mph - N/A   Clear
9:35 AM 68.4 °F - 66.6 °F 94% 30.08 in 10.0 mi South 3.5 mph - N/A   Clear
9:55 AM 69.4 °F - 66.0 °F 89% 30.10 in 10.0 mi Calm Calm - N/A   Scattered Clouds
10:15 AM 69.8 °F - 67.3 °F 92% 30.10 in 10.0 mi North 4.6 mph - N/A   Scattered Clouds
10:35 AM 72.0 °F - 67.5 °F 86% 30.07 in 10.0 mi Calm Calm - N/A   Clear
10:55 AM 73.4 °F - 68.0 °F 83% 30.05 in 10.0 mi SSE 6.9 mph - N/A   Clear
11:15 AM 74.8 °F - 68.7 °F 81% 30.04 in 10.0 mi SSE 8.1 mph - N/A   Clear
11:35 AM 74.5 °F - 69.1 °F 83% 30.02 in 10.0 mi SSE 11.5 mph - N/A   Clear
11:55 AM 75.2 °F - 69.3 °F 82% 30.01 in 10.0 mi South 6.9 mph - N/A   Clear
12:15 PM 77.9 °F - 71.1 °F 79% 30.00 in 10.0 mi South 10.4 mph 16.1 mph N/A   Clear
12:35 PM 77.0 °F - 70.0 °F 79% 29.99 in 10.0 mi South 8.1 mph - N/A   Clear
12:55 PM 79.0 °F - 71.6 °F 78% 29.98 in 10.0 mi South 10.4 mph - N/A   Clear
1:15 PM 81.5 °F 86.3 °F 72.3 °F 74% 29.98 in 10.0 mi SSW 8.1 mph 16.1 mph N/A   Clear
1:35 PM 81.9 °F 86.6 °F 72.0 °F 72% 29.98 in 10.0 mi SW 10.4 mph - N/A   Clear
1:55 PM 81.5 °F 85.9 °F 71.8 °F 72% 29.98 in 10.0 mi SW 11.5 mph 17.3 mph N/A   Clear
2:15 PM 82.8 °F 87.9 °F 72.1 °F 70% 29.98 in 10.0 mi SW 15.0 mph 19.6 mph N/A   Clear
2:35 PM 83.5 °F 89.4 °F 72.9 °F 70% 29.97 in 10.0 mi SSW 11.5 mph 19.6 mph N/A   Clear
2:55 PM 82.6 °F 88.3 °F 73.2 °F 73% 29.97 in 10.0 mi SSW 9.2 mph - N/A   Clear
3:15 PM 84.6 °F 91.7 °F 73.8 °F 70% 29.97 in 10.0 mi SSW 12.7 mph - N/A   Clear
3:35 PM 83.8 °F 90.1 °F 73.0 °F 70% 29.97 in 10.0 mi SW 11.5 mph - N/A   Clear
3:55 PM 83.8 °F 90.8 °F 73.8 °F 72% 29.98 in 10.0 mi SSW 10.4 mph 17.3 mph N/A   Clear
4:15 PM 84.4 °F 92.0 °F 74.3 °F 72% 29.98 in 10.0 mi SW 6.9 mph - N/A   Clear
4:35 PM 83.7 °F 90.7 °F 74.3 °F 73% 30.00 in 10.0 mi SW 8.1 mph - N/A   Clear
4:55 PM 72.5 °F - 64.9 °F 77% 30.09 in 3.0 mi West 21.9 mph 42.6 mph 0.04 in Rain , Thunderstorm Heavy Thunderstorms and Rain
5:15 PM 67.1 °F - 65.1 °F 93% 30.06 in 3.0 mi WNW 9.2 mph 27.6 mph 0.10 in Rain , Thunderstorm Heavy Thunderstorms and Rain
5:35 PM 67.1 °F - 64.9 °F 93% 30.04 in 10.0 mi Calm Calm - 0.12 in Rain , Thunderstorm Light Thunderstorms and Rain
5:55 PM 67.6 °F - 65.5 °F 93% 29.97 in 10.0 mi ESE 3.5 mph - 0.12 in Rain , Thunderstorm Light Thunderstorms and Rain
6:15 PM 68.0 °F - 65.7 °F 92% 29.96 in 10.0 mi SE 4.6 mph - N/A Rain , Thunderstorm Light Thunderstorms and Rain
6:35 PM 68.0 °F - 66.0 °F 93% 29.92 in 10.0 mi SSE 10.4 mph - N/A Rain Light Rain
6:55 PM 68.0 °F - 65.3 °F 91% 29.89 in 10.0 mi SE 6.9 mph - N/A   Clear
7:15 PM 68.0 °F - 65.5 °F 92% 29.90 in 10.0 mi Calm Calm - N/A   Clear
7:35 PM 68.0 °F - 66.2 °F 94% 29.92 in 10.0 mi Calm Calm - N/A   Clear
7:55 PM 68.0 °F - 66.4 °F 95% 29.93 in 10.0 mi Calm Calm - N/A   Clear
8:15 PM 68.0 °F - 66.2 °F 94% 29.92 in 10.0 mi Calm Calm - N/A   Clear
8:35 PM 68.2 °F - 66.4 °F 94% 29.92 in 10.0 mi Calm Calm - N/A   Clear
8:55 PM 67.1 °F - 66.0 °F 96% 29.93 in 10.0 mi ESE 4.6 mph - N/A   Clear
9:15 PM 68.0 °F - 65.3 °F 91% 29.92 in 10.0 mi East 5.8 mph - N/A   Clear
9:35 PM 67.8 °F - 65.7 °F 93% 29.93 in 10.0 mi Calm Calm - N/A   Clear
9:55 PM 67.8 °F - 66.2 °F 95% 29.93 in 10.0 mi ESE 3.5 mph - N/A   Clear
10:15 PM 68.0 °F - 66.2 °F 94% 29.94 in 10.0 mi Calm Calm - N/A   Clear
10:35 PM 68.2 °F - 65.8 °F 92% 29.95 in 10.0 mi Calm Calm - N/A   Clear
10:55 PM 68.2 °F - 65.8 °F 92% 29.96 in 10.0 mi Calm Calm - N/A   Clear
11:15 PM 68.0 °F - 65.8 °F 93% 29.95 in 10.0 mi Calm Calm - N/A   Clear
11:35 PM 68.0 °F - 66.2 °F 94% 29.95 in 10.0 mi Calm Calm - N/A   Clear
11:55 PM 68.0 °F - 66.2 °F 94% 29.95 in 10.0 mi Calm Calm - N/A   Clear